Location: Home
(42.5358°N, 72.7383°W)
Time: 03:10:06
(UTC-04:00)

Vanguard 1 - Pass Details

Date: 01 June 2022
Orbit: 649 x 3832 km, 34.2° (Epoch: 24 June)

Event Time Altitude Azimuth Distance (km) Brightness Sun altitude
Exits shadow 02:50:49 - 260° (W) 5,053 13.3 -19.5°
Reaches altitude 10° 02:52:58 10° 257° (WSW) 4,556 13.1 -19.3°
Maximum altitude 03:06:43 65° 180° (S) 3,239 12.4 -18.0°
Drops below altitude 10° 03:28:56 10° 105° (ESE) 6,921 14.7 -15.6°
Sets 03:34:31 0° 103° (ESE) 7,964 15.1 -15.0°
